sat.trackr.live / text

‹ back to catalog

STARLINK-34429

NORAD 64464 · 2025-130AC

PAYLOAD ACTIVE UNKNOWN

§ Identity

Operator
Country
US
Launch date
2025-06-18
Launch site
AFETR
Launch vehicle
Mass (kg)
RCS (m²)

Purposes: comms

External: N2YO · Heavens-Above · Gunter

§ Orbital elements

Epoch: 2026-05-25T02:35:35.541600Z

Period
93.85 min
Inclination
53.1597°
Eccentricity
0.0000967
Mean motion
15.34408398 rev/d
Perigee alt
462.0 km
Apogee alt
463.3 km
Semi-major
6,840.8 km
B*
8.7492e-4
RAAN
92.8262°
Arg perigee
96.7021°
Mean anomaly
263.4091°
Rev number
5,241

§ Raw data

STARLINK-344291 64464U 25130AC  26145.10805025  .00029308  00000+0  87492-3 0  99982 64464  53.1597  92.8262 0000967  96.7021 263.4091 15.34408398 52414

JSON: /api/v1/satellites/64464 · /tle

For live sub-satellite position, see the globe view (requires WebGL).

§ Visibility from observer

Set your observer location to see the next 7 days of passes ≥ 10°. The values pass through the URL so the page stays shareable.

No JS? Fill the form by hand. The geolocation button needs JavaScript.